User: anonymous   Login
Location: Linden Beach
(43.8519°N, 88.3741°W)
Time: 08:38:48
(UTC+00:00)
Language:

Hubble Space Telescope - Orbit

View from above orbital plane
View from above orbital plane
View from above satellite
View from above satellite

Ground track
Ground track

The orbit data is extracted from the following two-line orbital elements,

1 20580U 90037B   21171.37356733  .00000508  00000-0  19764-4 0  9997
2 20580  28.4710  45.7568 0002842  94.8923  75.8009 15.09663011511485
Epoch (UTC): 20 June 2021 08:57:56
Eccentricity: 0.0002842
inclination: 28.4710°
perigee height: 535 km
apogee height: 539 km
right ascension of ascending node: 45.7568°
argument of perigee: 94.8923°
revolutions per day: 15.09663011
mean anomaly at epoch: 75.8009°
orbit number at epoch: 51148

The dashed part of the orbit path shows where the satellite is in the earth's shadow,  

DLR